User: anonymous   Login
Location: Heidgraben
(53.7081°N, 9.6576°E)
Time: 18:56:16
(UTC+00:00)
Language:

Thor Agena Rocket - Orbit

View from above orbital plane
View from above orbital plane
View from above satellite
View from above satellite

Ground track
Ground track

The orbit data is extracted from the following two-line orbital elements,

1   733U 64002A   20263.56239874 +.00000011 +00000-0 +21771-4 0  9996
2   733 098.9979 158.7093 0033225 319.1340 040.7352 14.32404998952297
Epoch (UTC): 19 September 2020 13:29:51
Eccentricity: 0.0033225
inclination: 98.9979°
perigee height: 760 km
apogee height: 807 km
right ascension of ascending node: 158.7093°
argument of perigee: 319.1340°
revolutions per day: 14.32404998
mean anomaly at epoch: 40.7352°
orbit number at epoch: 95229

The dashed part of the orbit path shows where the satellite is in the earth's shadow,  

DLR